Printer-friendly version

IAU Minor Planet Center

Minor Planet Center

MPEC 2006-A33 : 2006 AO3

The following Minor Planet Electronic Circular may be linked-to from your own Web pages, but must not otherwise be redistributed electronically.


Read MPEC 2006-A32 Read MPEC 2006-A34


M.P.E.C. 2006-A33                                Issued 2006 Jan. 8, 16:53 UT

     The Minor Planet Electronic Circulars contain information on unusual
         minor planets and routine data on comets.  They are published
   on behalf of Commission 20 of the International Astronomical Union by the
          Minor Planet Center, Smithsonian Astrophysical Observatory,
                          Cambridge, MA 02138, U.S.A.

                  Supported in part by the Brinson Foundation
                  Supported in part by the TABASGO Foundation
             Prepared using the Tamkin Foundation Computer Network

                              MPC@CFA.HARVARD.EDU
          URL http://cfa-www.harvard.edu/iau/mpc.html  ISSN 1523-6714

                                   2006 AO3

Observations:
     K06A03O* C2006 01 05.47060 13 47 38.88 +08 51 27.4          21.2 V EA033691
     K06A03O  C2006 01 05.48547 13 47 39.64 +08 51 23.6          21.0 V EA033691
     K06A03O  C2006 01 05.50035 13 47 40.37 +08 51 19.9          21.1 V EA033691
     K06A03O  C2006 01 06.51220 13 48 30.22 +08 47 03.2          21.6 V EA033291
     K06A03O  C2006 01 06.51804 13 48 30.50 +08 47 02.1          21.5 V EA033291
     K06A03O  C2006 01 06.52349 13 48 30.76 +08 47 00.6          21.6 V EA033291
     K06A03O  C2006 01 06.54461 13 48 31.77 +08 46 54.8          21.3 V EA033G96
     K06A03O  C2006 01 06.54954 13 48 32.01 +08 46 53.3          21.2 V EA033G96
     K06A03O  C2006 01 06.55444 13 48 32.14 +08 46 52.2          22.2 V EA033G96
     K06A03O  C2006 01 07.42047 13 49 14.41 +08 43 17.5          22.2 R EA033701
     K06A03O  C2006 01 07.43784 13 49 15.18 +08 43 13.3          21.3 R EA033701
     K06A03O  C2006 01 07.46435 13 49 16.42 +08 43 06.9          21.4 V EA033291
     K06A03O  C2006 01 07.46819 13 49 16.61 +08 43 06.1          21.2 V EA033291
     K06A03O  C2006 01 07.47227 13 49 16.78 +08 43 05.1          21.1 V EA033291
     K06A03O  C2006 01 08.49452 13 50 05.50 +08 38 57.1          21.4 V EA033291
     K06A03O  C2006 01 08.49866 13 50 05.69 +08 38 55.5          21.5 V EA033291
     K06A03O  C2006 01 08.50262 13 50 05.87 +08 38 55.3          21.8 V EA033291

Observer details:
291 LPL/Spacewatch II.  Observer T. H. Bressi.  1.8-m f/2.7 reflector + CCD.
691 Steward Observatory, Kitt Peak.  Observers T. H. Bressi, M. T. Read.
    0.9-m f/3 reflector + CCD.
701 Junk Bond Observatory, Sierra Vista.  Observer D. Healy.  0.81-m f/4.4
    Ritchey-Chretien + CCD.
G96 Mt. Lemmon Survey.  Observer E. J. Christensen.  Measurers E. C. Beshore,
    E. J. Christensen, G. J. Garradd, A. D. Grauer, R. E. Hill, R. A. Kowalski,
    S. M. Larson, R. H. McNaught.  1.5-m reflector + CCD.

Orbital elements:
2006 AO3                                                 Earth MOID = 0.0701 AU
Epoch 2006 Jan. 5.0 TT = JDT 2453740.5                  MPC
M 256.04961              (2000.0)            P               Q
n   0.37642520     Peri.  298.45628     +0.72276127     +0.64846106
a   1.8996937      Node    23.86493     -0.21176861     +0.53697927
e   0.5345677      Incl.   36.20663     -0.65785272     +0.53958458
P   2.62           H   16.6           G   0.15
From 17 observations 2006 Jan. 5-8.

Ephemeris:
2006 AO3                 a,e,i = 1.90, 0.53, 36                  q = 0.8842
Date    TT    R. A. (2000) Decl.     Delta      r     Elong.  Phase     V
2006 01 05    13 47.25   +08 53.5    2.444    2.526    83.3    22.7    21.6
2006 01 15    13 54.90   +08 15.1    2.266    2.485    90.9    23.3    21.5
2006 01 25    14 00.88   +07 46.6    2.086    2.443    99.0    23.5    21.2
2006 02 04    14 04.73   +07 28.5    1.908    2.398   107.6    23.1    21.0
2006 02 14    14 05.89   +07 20.2    1.734    2.350   116.8    22.0    20.7
2006 02 24    14 03.69   +07 20.6    1.569    2.301   126.6    20.2    20.4
2006 03 06    13 57.38   +07 27.2    1.417    2.249   137.3    17.4    20.0
2006 03 16    13 46.32   +07 34.9    1.284    2.195   148.6    13.7    19.6
2006 03 26    13 30.23   +07 36.2    1.175    2.139   159.7     9.3    19.2
2006 04 05    13 09.61   +07 21.2    1.095    2.080   166.3     6.6    18.9
2006 04 15    12 46.15   +06 40.3    1.046    2.019   160.1     9.7    18.9
2006 04 25    12 22.41   +05 28.7    1.030    1.955   147.6    16.0    19.0
2006 05 05    12 01.12   +03 48.0    1.041    1.889   134.3    22.4    19.1
2006 05 15    11 44.15   +01 44.3    1.074    1.821   121.7    28.2    19.3
2006 05 25    11 32.22   -00 35.9    1.120    1.750   110.2    32.9    19.4
2006 06 04    11 25.24   -03 08.4    1.171    1.678   100.0    36.5    19.6
2006 06 14    11 22.65   -05 51.3    1.223    1.603    91.0    39.3    19.6
2006 06 24    11 23.80   -08 44.3    1.269    1.527    83.0    41.4    19.7
2006 07 04    11 28.15   -11 48.7    1.305    1.449    76.1    42.9    19.6
2006 07 14    11 35.27   -15 05.7    1.330    1.370    70.0    44.2    19.6
2006 07 24    11 44.89   -18 37.0    1.339    1.291    64.8    45.4    19.5
2006 08 03    11 56.99   -22 24.5    1.332    1.213    60.5    46.7    19.4

Gareth V. Williams           (C) Copyright 2006 MPC           M.P.E.C. 2006-A33

Read MPEC 2006-A32 Read MPEC 2006-A34


Our Web policy. Index to the CBAT/MPC/ICQ pages.


Valid HTML 4.01!